Soldotna, AK

12:56 PM AKDT on March 24, 2017 (GMT -0800)
Soldotna

Weather History for PASX - January, 2012

Change the Weather History Date:

Tuesday, January 17, 2012

  Actual Average Record
Temperature  
Mean Temperature -15 °F -  
Max Temperature -5 °F 23 °F 44 °F (2009)
Min Temperature -25 °F 6 °F -40 °F (1951)
Degree Days  
Heating Degree Days 80    
Moisture  
Dew Point -23 °F    
Average Humidity 71    
Maximum Humidity 100    
Minimum Humidity 53    
Precipitation  
Precipitation 0.00 in - - ()
Sea Level Pressure  
Sea Level Pressure 30.53 in    
Wind  
Wind Speed 3 mph (ENE)    
Max Wind Speed 7 mph    
Max Gust Speed -    
Visibility 8 miles    
Events      
Averages and records for this station are not official NWS values.
T = Trace of Precipitation, MM = Missing Value Source: NWS Daily Summary

Daily Weather History Graph

Daily Weather History Graph

Search for Another Location

Airport or City:

Trip Planner

Search our weather history database for the weather conditions in past years. The results will help you decide how hot, cold, wet, or windy it might be!

Date:

Astronomy

Jan. 17, 2012 Rise Set
Actual Time 9:52 AM AKST 4:36 PM AKST
Civil Twilight 8:59 AM AKST 5:29 PM AKST
Nautical Twilight 8:04 AM AKST 6:24 PM AKST
Astronomical Twilight 7:13 AM AKST 7:15 PM AKST
Moon 4:16 AM AKST (1/17) 11:39 AM AKST (1/17)
Length of Visible Light 8h 30m
Length of Day
6h 43m
Waning Crescent, 33% of the Moon is Illuminated
Jan 17
Waning Crescent
Jan 22
New
Jan 30
First Quarter
Feb 7
Full
Feb 14
Last Quarter

Hourly Weather History & Observations

Time (AKST) Temp. Windchill Dew Point Humidity Pressure Visibility Wind Dir Wind Speed Gust Speed Precip Events Conditions
12:36 AM -20.2 °F - -29.2 °F 63% 30.61 in 10.0 mi Calm Calm - N/A   Clear
12:56 AM -20.2 °F - - N/A% 30.61 in 10.0 mi Calm Calm - N/A   Clear
1:16 AM -20.2 °F - - N/A% 30.61 in 10.0 mi Calm Calm - N/A   Clear
1:36 AM -20.2 °F -33.5 °F - N/A% 30.60 in 9.0 mi ENE 4.6 mph - N/A   Clear
1:56 AM -22.0 °F -33.0 °F - N/A% 30.60 in 9.0 mi ENE 3.5 mph - N/A   Clear
2:16 AM -20.2 °F -33.5 °F -25.6 °F 76% 30.60 in 8.0 mi ENE 4.6 mph - N/A   Clear
2:56 AM -20.2 °F - -29.2 °F 63% 30.60 in 8.0 mi Calm Calm - N/A   Clear
3:36 AM -23.8 °F -37.7 °F - N/A% 30.59 in 8.0 mi ENE 4.6 mph - N/A   Clear
3:56 AM -23.8 °F -37.7 °F - N/A% 30.59 in 8.0 mi NE 4.6 mph - N/A   Clear
4:16 AM -22.0 °F - -25.6 °F 83% 30.59 in 8.0 mi Calm Calm - N/A   Clear
4:36 AM -23.8 °F -35.0 °F - N/A% 30.58 in 8.0 mi ENE 3.5 mph - N/A   Clear
4:56 AM -23.8 °F -37.7 °F - N/A% 30.58 in 8.0 mi East 4.6 mph - N/A   Clear
5:16 AM -23.8 °F -37.7 °F -27.4 °F 83% 30.57 in 8.0 mi East 4.6 mph - N/A   Clear
5:36 AM -23.8 °F -35.0 °F - N/A% 30.57 in 8.0 mi ENE 3.5 mph - N/A   Clear
5:56 AM -23.8 °F -35.0 °F - N/A% 30.56 in 9.0 mi East 3.5 mph - N/A   Clear
6:16 AM -23.8 °F - - N/A% 30.56 in 8.0 mi Calm Calm - N/A   Clear
6:36 AM -23.8 °F -35.0 °F - N/A% 30.56 in 8.0 mi East 3.5 mph - N/A   Clear
6:56 AM -23.8 °F -35.0 °F - N/A% 30.55 in 8.0 mi ENE 3.5 mph - N/A   Clear
7:16 AM -25.6 °F -39.8 °F - N/A% 30.54 in 8.0 mi East 4.6 mph - N/A   Clear
7:36 AM -23.8 °F -37.7 °F -29.2 °F 76% 30.55 in 9.0 mi ENE 4.6 mph - N/A   Clear
7:56 AM -23.8 °F -37.7 °F - N/A% 30.54 in 9.0 mi East 4.6 mph - N/A   Clear
8:16 AM -20.2 °F -33.5 °F - N/A% 30.54 in 10.0 mi East 4.6 mph - N/A   Clear
8:36 AM -22.0 °F -37.7 °F -25.6 °F 83% 30.54 in 9.0 mi East 5.8 mph - N/A   Clear
8:56 AM -20.2 °F -35.5 °F -29.2 °F 63% 30.55 in 10.0 mi East 5.8 mph - N/A   Clear
9:16 AM -22.0 °F -37.7 °F - N/A% 30.55 in 9.0 mi East 5.8 mph - N/A   Clear
9:36 AM -23.8 °F -37.7 °F -29.2 °F 76% 30.54 in 7.0 mi ENE 4.6 mph - N/A   Clear
9:56 AM -22.0 °F -37.7 °F -29.2 °F 69% 30.54 in 7.0 mi ENE 5.8 mph - N/A   Clear
10:16 AM -23.8 °F -37.7 °F - N/A% 30.54 in 8.0 mi ENE 4.6 mph - N/A   Clear
10:36 AM -23.8 °F -37.7 °F - N/A% 30.54 in 7.0 mi NE 4.6 mph - N/A   Clear
10:56 AM -23.8 °F -37.7 °F - N/A% 30.54 in 6.0 mi East 4.6 mph - N/A   Clear
11:16 AM -20.2 °F -35.5 °F -23.8 °F 83% 30.54 in 7.0 mi ENE 5.8 mph - N/A   Clear
11:36 AM -18.4 °F -33.4 °F -27.4 °F 63% 30.54 in 7.0 mi East 5.8 mph - N/A   Clear
11:56 AM -18.4 °F -31.4 °F -27.4 °F 63% 30.53 in 8.0 mi ENE 4.6 mph - N/A   Clear
12:16 PM -16.6 °F -29.3 °F -20.2 °F 84% 30.53 in 8.0 mi East 4.6 mph - N/A   Clear
12:36 PM -14.8 °F -29.1 °F -22.0 °F 70% 30.53 in 8.0 mi East 5.8 mph - N/A   Clear
12:56 PM -14.8 °F -30.8 °F -22.0 °F 70% 30.52 in 8.0 mi East 6.9 mph - N/A   Clear
1:16 PM -13.0 °F -25.1 °F -18.4 °F 77% 30.52 in 8.0 mi East 4.6 mph - N/A   Clear
1:36 PM -11.2 °F -23.0 °F -18.4 °F 70% 30.51 in 8.0 mi East 4.6 mph - N/A   Clear
1:56 PM -9.4 °F -22.7 °F -16.6 °F 71% 30.50 in 8.0 mi East 5.8 mph - N/A   Clear
2:16 PM -9.4 °F -22.7 °F -16.6 °F 71% 30.50 in 8.0 mi ENE 5.8 mph - N/A   Clear
2:36 PM -7.6 °F -16.5 °F -13.0 °F 77% 30.50 in 7.0 mi East 3.5 mph - N/A   Clear
2:56 PM -7.6 °F -18.8 °F -16.6 °F 65% 30.49 in 8.0 mi East 4.6 mph - N/A   Clear
3:16 PM -5.8 °F -18.4 °F -11.2 °F 77% 30.49 in 8.0 mi East 5.8 mph - N/A   Clear
3:36 PM -5.8 °F -14.5 °F -14.8 °F 65% 30.48 in 7.0 mi East 3.5 mph - N/A   Clear
3:56 PM -7.6 °F - -14.8 °F 71% 30.48 in 8.0 mi Calm Calm - N/A   Clear
4:16 PM -9.4 °F -20.9 °F -18.4 °F 65% 30.48 in 8.0 mi East 4.6 mph - N/A   Clear
4:36 PM -11.2 °F -20.6 °F -18.4 °F 70% 30.48 in 8.0 mi ENE 3.5 mph - N/A   Clear
4:56 PM -11.2 °F - -20.2 °F 64% 30.47 in 8.0 mi Calm Calm - N/A   Clear
5:16 PM -11.2 °F -20.6 °F -23.8 °F 54% 30.48 in 7.0 mi ENE 3.5 mph - N/A   Clear
5:36 PM -14.8 °F - -23.8 °F 64% 30.47 in 10.0 mi Calm Calm - N/A   Clear
5:56 PM -16.6 °F -26.8 °F -23.8 °F 70% 30.47 in 9.0 mi ENE 3.5 mph - N/A   Clear
6:16 PM -16.6 °F -29.3 °F -25.6 °F 64% 30.46 in 9.0 mi East 4.6 mph - N/A   Clear
6:36 PM -16.6 °F -29.3 °F -16.6 °F 100% 30.46 in 9.0 mi ENE 4.6 mph - N/A   Clear
6:56 PM -18.4 °F -31.4 °F - N/A% 30.46 in 9.0 mi ENE 4.6 mph - N/A   Clear
7:16 PM -16.6 °F -26.8 °F -25.6 °F 64% 30.46 in 9.0 mi East 3.5 mph - N/A   Clear
7:36 PM -16.6 °F -26.8 °F -22.0 °F 76% 30.46 in 9.0 mi ENE 3.5 mph - N/A   Clear
7:56 PM -16.6 °F -31.3 °F -29.2 °F 53% 30.46 in 10.0 mi ENE 5.8 mph - N/A   Clear
8:16 PM -16.6 °F -26.8 °F -18.4 °F 92% 30.46 in 9.0 mi East 3.5 mph - N/A   Clear
8:36 PM -18.4 °F -31.4 °F - N/A% 30.46 in 8.0 mi ENE 4.6 mph - N/A   Clear
8:56 PM -16.6 °F -29.3 °F -23.8 °F 70% 30.46 in 9.0 mi ENE 4.6 mph - N/A   Clear
9:16 PM -18.4 °F -28.9 °F -25.6 °F 70% 30.46 in 9.0 mi ENE 3.5 mph - N/A   Clear
9:36 PM -20.2 °F -33.5 °F - N/A% 30.45 in 8.0 mi East 4.6 mph - N/A   Clear
9:56 PM -18.4 °F -33.4 °F -27.4 °F 63% 30.46 in 8.0 mi ENE 5.8 mph - N/A   Clear
10:16 PM -18.4 °F -35.1 °F -23.8 °F 76% 30.46 in 9.0 mi ENE 6.9 mph - N/A   Clear
10:36 PM -18.4 °F -33.4 °F -27.4 °F 63% 30.45 in 9.0 mi ENE 5.8 mph - N/A   Clear
10:56 PM -18.4 °F -36.6 °F -25.6 °F 70% 30.45 in 10.0 mi East 8.1 mph - N/A   Clear
11:16 PM -18.4 °F -35.1 °F -25.6 °F 70% 30.45 in 10.0 mi ENE 6.9 mph - N/A   Clear
11:36 PM -18.4 °F -35.1 °F -29.2 °F 58% 30.45 in 10.0 mi ENE 6.9 mph - N/A   Clear
11:56 PM -18.4 °F -31.4 °F -23.8 °F 76% 30.45 in 9.0 mi East 4.6 mph - N/A   Clear